RH
72 64 58 55 52 50 44 41 38 40 39 38 38 40 33 22 17 11 10 13 16 17 25 46 40 32 60 100 100 100 100 71 74 100 100 86 82 76
59 52 49 46 43 41 41 45 40 28 23 27 22 20 20 18 14 12 13 10 11 13 14 19 38 36 29 58 100 100 100 100 60 100 100 100 96 95
54 53 50 44 50 52 43 28 14 9 7 12 12 10 7 7 6 6 6 7 7 10 15 15 20 37 36 27 56 100 100 100 94 84 100 100 100 89
54 48 51 53 52 26 12 11 12 12 10 10 11 10 10 7 6 6 4 4 5 8 10 12 14 16 30 28 27 77 100 100 100 95 82 100 100 100
62 60 49 40 14 16 15 12 9 8 7 6 7 5 5 5 4 5 6 6 4 5 7 8 11 12 13 26 23 37 98 100 100 100 100 97 81 100
62 45 24 18 18 11 10 9 7 5 4 3 3 3 3 3 3 3 4 5 5 4 4 6 8 11 14 16 22 24 53 94 100 100 100 100 100 100
25 20 21 14 12 10 7 5 4 4 4 4 4 3 3 2 2 2 3 4 4 6 5 5 6 7 11 15 20 30 34 54 100 100 100 100 100 100
24 18 16 14 9 5 5 5 5 4 3 4 3 3 2 2 2 2 2 3 4 4 5 4 5 6 10 14 16 27 27 37 55 100 100 100 100 100
18 18 14 8 6 6 6 5 5 5 4 3 4 3 2 2 2 2 2 2 3 4 4 6 6 8 11 13 15 19 24 25 40 89 100 100 100 100
19 13 8 6 7 6 6 6 4 4 3 3 3 3 3 2 2 2 2 2 2 3 4 5 7 9 10 12 13 15 21 27 32 51 100 100 100 100
11 7 7 8 7 6 6 5 4 3 4 4 3 2 2 2 2 2 2 3 3 2 3 6 6 7 8 10 12 16 22 24 33 35 100 100 100 100
8 10 9 9 8 6 6 4 4 3 3 4 3 3 2 2 3 3 2 3 4 3 2 5 5 6 7 7 9 11 16 21 24 36 51 100 100 100
11 9 9 8 8 6 5 5 4 4 3 3 3 3 2 2 2 2 2 2 4 4 2 3 5 4 7 9 8 10 13 17 19 29 31 100 100 100
10 9 8 8 8 7 7 5 4 4 4 4 3 3 3 3 3 2 3 3 3 5 2 3 4 5 6 9 10 9 11 15 19 24 36 39 100 100
10 8 8 8 8 7 7 6 6 5 4 4 4 3 3 3 3 3 2 3 3 4 3 3 3 5 6 6 11 11 10 13 18 21 34 34 79 100
10 9 9 9 8 8 7 7 6 6 5 4 4 4 3 3 3 3 2 3 3 3 3 4 3 4 6 7 8 14 11 12 16 22 26 36 37 100
10 11 10 10 9 9 8 8 8 6 5 5 4 4 4 3 3 3 3 3 3 3 3 3 4 3 6 7 7 13 14 12 15 20 29 40 33 88
12 12 11 10 10 10 9 9 8 6 5 5 4 4 4 3 3 3 3 3 3 3 3 3 4 3 5 7 8 10 16 14 15 19 30 40 35 41
12 13 11 11 11 10 10 10 8 7 6 5 5 5 4 4 4 4 3 3 3 3 3 3 4 4 4 7 8 8 15 17 14 19 30 39 43 29
12 13 12 12 12 12 12 10 9 8 7 6 6 5 4 4 4 4 4 4 3 3 3 3 4 4 4 6 7 8 12 18 16 18 22 40 46 29
13 13 12 12 12 14 13 11 9 9 8 7 6 6 5 5 4 4 4 4 3 3 3 3 4 4 4 5 8 8 9 16 18 18 25 32 52 38
13 13 12 12 13 15 14 12 11 11 9 7 6 6 5 5 5 4 4 4 4 3 3 4 4 5 4 4 8 8 8 14 19 19 18 28 39 47
12 13 13 14 14 15 13 12 12 12 10 8 7 6 6 5 5 5 4 4 4 3 3 4 4 5 5 4 6 8 8 11 17 20 18 25 38 52
Wind_Speed
117 120 121 121 122 121 121 121 123 125 129 137 144 151 156 156 154 148 145 146 149 153 155 156 156 156 150 143 135 126 120 121 116 103 98 94 89 85
116 116 118 117 116 119 124 128 132 136 138 147 150 152 156 157 150 146 146 145 146 156 160 158 158 157 155 147 142 133 127 123 121 113 104 98 93 93
109 109 112 116 121 125 128 131 129 126 117 118 126 132 130 134 137 134 135 139 147 149 155 156 158 160 158 153 150 139 135 131 124 119 112 100 93 93
108 112 119 121 126 126 118 112 112 114 111 109 116 121 124 124 126 125 125 128 138 147 154 155 159 160 162 159 152 151 139 135 128 126 121 108 101 97
114 118 122 123 113 108 106 104 106 108 110 108 111 114 117 119 119 115 120 122 123 141 152 158 158 160 161 163 154 152 147 137 131 126 124 115 110 100
120 121 113 104 101 102 100 100 100 101 100 100 99 103 109 113 114 110 112 117 115 127 137 155 154 159 158 159 159 150 154 145 135 129 126 118 111 107
116 103 99 98 98 96 92 92 91 89 88 89 91 92 102 105 106 104 104 112 111 116 126 140 152 157 159 157 159 156 150 151 142 133 129 118 112 111
96 95 96 94 92 88 85 83 83 82 80 80 84 85 94 96 99 97 95 102 108 109 115 129 144 148 158 156 158 161 153 151 149 134 130 124 120 115
92 92 91 88 85 82 79 76 76 75 74 73 75 80 86 92 92 90 90 95 100 107 108 118 130 137 151 152 154 159 158 151 146 137 132 124 120 121
89 88 85 82 78 76 73 71 69 67 67 67 70 74 78 84 85 86 86 89 94 100 104 111 118 139 147 155 156 156 156 158 150 139 134 128 125 120
83 80 76 74 73 69 65 66 63 61 57 64 65 67 71 74 79 81 83 84 90 94 99 107 115 129 146 152 157 157 154 155 152 146 141 132 130 129
73 71 69 66 66 64 61 60 57 55 52 55 60 61 65 68 73 74 77 80 85 90 95 102 114 119 135 148 153 156 157 157 155 151 143 139 132 134
67 64 62 60 59 59 56 54 51 50 48 49 53 55 59 62 66 69 73 76 81 88 92 97 109 112 120 131 145 152 159 160 157 151 144 143 137 136
60 59 57 54 53 52 50 49 47 46 44 44 46 50 54 57 60 64 68 72 77 87 88 92 102 107 114 122 132 144 151 156 156 153 148 143 141 133
55 54 51 50 47 47 45 45 43 41 40 39 41 46 50 51 56 60 65 70 75 81 81 88 97 104 110 119 126 134 147 151 156 154 152 148 145 135
50 48 47 45 43 42 41 41 40 39 39 37 39 42 45 48 51 56 62 66 72 74 77 84 94 99 106 114 121 129 141 148 153 155 151 150 145 139
44 43 42 40 39 38 38 38 39 38 37 36 37 39 42 44 48 52 58 63 69 71 74 81 89 95 105 113 119 124 134 146 149 152 152 153 148 145
39 39 37 37 37 36 36 36 37 37 35 34 35 38 40 41 45 50 54 60 64 68 72 78 84 90 100 109 116 124 131 142 149 152 153 155 152 147
34 35 35 36 35 34 34 34 35 35 34 33 33 35 37 40 42 47 51 56 60 65 69 75 82 87 97 108 116 121 127 137 148 150 156 156 154 150
31 32 33 33 32 32 33 33 32 33 31 31 32 33 35 38 40 44 48 53 58 62 67 72 77 84 93 107 114 118 125 133 145 150 155 157 157 153
29 31 31 30 29 30 31 31 31 30 30 29 30 31 33 36 38 41 45 50 55 60 66 69 76 80 89 101 111 118 124 130 138 152 155 160 158 154
28 29 30 28 27 28 29 29 30 29 29 28 28 29 31 34 37 40 43 47 52 58 63 68 73 79 87 96 108 116 121 126 132 150 154 157 156 157
27 27 27 27 26 26 27 28 28 27 28 28 27 28 29 32 36 38 42 46 50 55 59 64 70 78 84 93 104 113 118 122 127 142 148 155 157 154
Wind_Direction
269 268 268 269 269 267 265 263 261 258 258 256 254 254 253 251 250 247 243 239 238 237 235 233 234 235 233 231 232 231 234 236 237 236 239 238 238 241
272 270 270 270 269 267 266 265 263 258 255 257 258 256 255 254 251 247 244 238 235 236 235 233 233 235 235 232 229 229 231 233 237 234 233 235 237 235
274 274 273 273 273 273 272 270 268 266 261 256 255 255 254 252 251 247 241 237 237 234 232 234 232 232 233 234 231 227 229 231 234 234 232 232 232 236
276 275 276 278 279 276 272 269 267 265 262 258 257 255 254 253 250 248 242 239 235 232 229 230 233 231 231 233 232 227 225 229 229 232 234 230 236 232
279 281 281 281 277 274 271 270 268 265 263 260 257 256 254 252 250 246 245 241 233 231 229 228 229 232 230 230 231 230 224 225 227 229 232 232 235 229
283 284 282 278 275 274 273 272 269 265 263 261 257 255 254 252 250 246 243 242 236 231 229 226 227 228 228 227 229 229 226 224 224 225 229 230 231 230
285 281 279 278 277 276 275 272 269 266 262 259 256 253 252 250 248 245 241 240 237 231 230 225 224 226 226 226 226 227 227 226 221 224 226 228 228 228
282 281 281 280 279 278 275 273 270 266 262 259 255 251 250 249 247 244 240 238 236 233 229 225 224 226 225 224 225 225 225 225 223 220 222 226 225 225
282 282 282 281 280 277 275 272 269 266 263 258 254 250 247 246 246 244 239 235 234 231 229 225 225 223 220 222 223 224 224 225 224 218 218 220 223 225
283 282 282 280 278 276 275 273 268 265 262 259 252 249 246 245 244 242 238 235 232 230 225 224 224 217 219 219 220 223 224 223 223 218 214 216 220 222
282 281 279 279 278 277 275 272 270 265 260 257 253 250 246 244 241 239 236 233 232 228 224 222 223 217 218 218 219 220 221 223 220 219 212 213 217 219
280 278 278 277 277 276 275 273 269 265 259 254 253 249 247 243 240 238 234 231 229 228 223 219 221 216 217 218 218 218 218 220 221 216 214 212 214 219
278 278 278 277 276 276 274 272 269 265 260 254 251 249 246 243 239 236 233 229 226 226 222 218 221 216 216 217 217 217 218 219 221 217 215 212 214 216
278 278 277 276 276 274 273 271 270 267 262 255 251 248 245 241 238 234 232 228 225 225 220 217 219 216 214 216 215 215 216 217 219 218 214 212 212 214
277 276 277 277 274 273 273 272 271 268 265 259 252 247 245 240 237 232 230 227 225 224 219 217 217 214 211 213 214 214 212 214 216 218 212 212 212 212
274 277 276 275 274 273 273 274 273 271 266 260 253 248 244 239 235 231 228 226 225 223 219 216 217 213 210 212 212 212 212 211 214 215 214 211 211 211
275 275 274 275 275 275 275 274 273 270 265 259 254 249 243 237 234 230 227 225 224 221 218 215 216 212 210 209 210 211 211 210 211 213 211 210 211 209
275 273 274 275 275 276 275 276 272 269 264 258 252 248 244 237 232 229 226 225 222 219 217 215 214 212 210 208 209 209 210 210 210 211 210 209 210 209
272 271 273 274 273 274 275 275 271 268 263 257 251 246 244 238 232 228 226 224 221 217 217 215 213 211 208 208 207 209 209 209 209 210 210 209 209 209
270 270 271 270 271 272 274 271 268 264 261 255 249 244 241 237 232 228 226 224 221 217 215 214 212 210 208 208 207 208 209 209 209 210 212 211 209 210
268 269 268 266 268 271 273 269 266 262 259 254 247 242 238 235 232 229 225 223 221 217 214 213 211 210 209 208 207 207 209 209 209 210 211 212 209 210
266 266 266 266 266 270 271 268 264 261 258 253 249 242 236 233 231 229 226 222 221 218 214 212 210 209 208 208 207 207 209 209 209 209 212 212 211 212
263 264 263 263 264 267 268 265 263 261 258 253 249 243 236 232 230 228 226 224 220 218 214 212 211 208 208 207 208 207 208 209 210 210 211 211 213 211